,,PA_Meas_PMT16A,,PR_Meas_QMR101_102,,RH_Meas_QMH101,,SR_Meas_QMS101,,TA_Meas_QMH101,,GenWind,,GenWind,
time,status,PA,status,PR,status,RH,status,SR,status,TA,status,DirAvg,status,SpdAvg,
2010-03-25, 00:00:04,VALID,917.086,VALID,0,VALID,96.9089,VALID,0,VALID,21.3998,VALID,355,VALID,0.254687,
2010-03-25, 00:01:04,VALID,917.072,VALID,0,VALID,96.9012,VALID,0,VALID,21.3591,VALID,355,VALID,0.275781,
2010-03-25, 00:02:04,VALID,917.079,VALID,0,VALID,96.9165,VALID,0,VALID,21.3998,VALID,355,VALID,0.335156,
2010-03-25, 00:03:04,VALID,917.064,VALID,0,VALID,96.9165,VALID,0,VALID,21.3998,VALID,355,VALID,0.530859,
2010-03-25, 00:04:04,VALID,917.039,VALID,0,VALID,96.9012,VALID,0,VALID,21.3591,VALID,355,VALID,0.3125,
2010-03-25, 00:05:04,VALID,916.994,VALID,0,VALID,96.9241,VALID,0,VALID,21.3591,VALID,355,VALID,0.293359,
2010-03-25, 00:06:04,VALID,916.988,VALID,0,VALID,96.9012,VALID,0,VALID,21.3608,VALID,355,VALID,0.124219,
2010-03-25, 00:07:04,VALID,916.969,VALID,0,VALID,96.9165,VALID,0,VALID,21.3201,VALID,355,VALID,0,
2010-03-25, 00:08:04,VALID,916.964,VALID,0,VALID,96.9089,VALID,0,VALID,21.3412,VALID,355,VALID,0.119141,
2010-03-25, 00:09:04,VALID,916.947,VALID,0,VALID,96.9394,VALID,0,VALID,21.3201,VALID,355,VALID,0.339844,
2010-03-25, 00:10:04,VALID,916.928,VALID,0,VALID,96.947,VALID,0,VALID,21.3396,VALID,355,VALID,0.25625,
2010-03-25, 00:11:04,VALID,916.907,VALID,0,VALID,96.9622,VALID,0,VALID,21.3591,VALID,355,VALID,0.140234,
2010-03-25, 00:12:04,VALID,916.894,VALID,0,VALID,96.947,VALID,0,VALID,21.3396,VALID,355,VALID,0,
2010-03-25, 00:13:04,VALID,916.9,VALID,0,VALID,96.9622,VALID,0,VALID,21.3396,VALID,355,VALID,0.241406,
2010-03-25, 00:14:04,VALID,916.881,VALID,0,VALID,96.9698,VALID,0,VALID,21.3396,VALID,355,VALID,0.138672,
2010-03-25, 00:15:04,VALID,916.866,VALID,0,VALID,96.9165,VALID,0,VALID,21.3201,VALID,354,VALID,0,
2010-03-25, 00:16:04,VALID,916.808,VALID,0,VALID,96.8555,VALID,0.107441,VALID,21.299,VALID,355,VALID,0,
2010-03-25, 00:17:04,VALID,916.801,VALID,0,VALID,96.9165,VALID,0.107441,VALID,21.2795,INVALID,360,VALID,0,
2010-03-25, 00:18:04,VALID,916.773,VALID,0,VALID,96.9317,VALID,0.107441,VALID,21.26,INVALID,360,VALID,0,
2010-03-25, 00:19:04,VALID,916.714,VALID,0,VALID,96.9317,VALID,0.107441,VALID,21.2811,VALID,355,VALID,0,
2010-03-25, 00:20:04,VALID,916.709,VALID,0,VALID,96.947,VALID,0.107441,VALID,21.2795,VALID,355,VALID,0,
2010-03-25, 00:21:04,VALID,916.664,VALID,0,VALID,96.9012,VALID,0,VALID,21.2616,VALID,355,VALID,0,
2010-03-25, 00:22:04,VALID,916.625,VALID,0,VALID,96.8098,VALID,0,VALID,21.1624,VALID,355,VALID,0,
2010-03-25, 00:23:04,VALID,916.647,VALID,0,VALID,96.7945,VALID,0.107441,VALID,21.125,VALID,355,VALID,0.271094,
2010-03-25, 00:24:04,VALID,916.644,VALID,0,VALID,96.8021,VALID,0.107441,VALID,21.0649,VALID,355,VALID,0.643359,
2010-03-25, 00:25:04,VALID,916.627,VALID,0,VALID,96.8479,VALID,0.107441,VALID,21.0665,VALID,355,VALID,0.51875,
2010-03-25, 00:26:04,VALID,916.654,VALID,0,VALID,96.8555,VALID,0.107441,VALID,21.0259,VALID,355,VALID,0.764453,
2010-03-25, 00:27:04,VALID,916.639,VALID,0,VALID,96.8631,VALID,0.107441,VALID,21.0064,VALID,355,VALID,0.6,
2010-03-25, 00:28:04,VALID,916.612,VALID,0,VALID,96.9012,VALID,0.107441,VALID,21.0064,VALID,355,VALID,0.742969,
2010-03-25, 00:29:04,VALID,916.6,VALID,0,VALID,96.8784,VALID,0,VALID,21.008,VALID,355,VALID,0.315234,
2010-03-25, 00:30:04,VALID,916.582,VALID,0,VALID,96.947,VALID,0.107441,VALID,21.0064,VALID,355,VALID,0.551953,
2010-03-25, 00:31:04,VALID,916.562,VALID,0,VALID,97.0003,VALID,0,VALID,21.008,VALID,355,VALID,0.583984,
2010-03-25, 00:32:04,VALID,916.511,VALID,0,VALID,97.0308,VALID,0,VALID,21.0681,VALID,355,VALID,0.502344,
2010-03-25, 00:33:04,VALID,916.496,VALID,0,VALID,97.008,VALID,0,VALID,21.047,VALID,355,VALID,0.35625,
2010-03-25, 00:34:04,VALID,916.462,VALID,0,VALID,96.9622,VALID,0,VALID,21.0275,VALID,355,VALID,0.305469,
2010-03-25, 00:35:04,VALID,916.487,VALID,0,VALID,96.9927,VALID,0,VALID,21.0275,VALID,355,VALID,0.468359,
2010-03-25, 00:36:04,VALID,916.483,VALID,0,VALID,97.0156,VALID,0,VALID,21.0275,VALID,355,VALID,0.488281,
2010-03-25, 00:37:04,VALID,916.448,VALID,0,VALID,97.0232,VALID,0,VALID,21.0681,VALID,355,VALID,0.585938,
2010-03-25, 00:38:04,VALID,916.452,VALID,0,VALID,97.0232,VALID,0.107441,VALID,21.047,VALID,355,VALID,0.609766,
2010-03-25, 00:39:04,VALID,916.454,VALID,0,VALID,97.0461,VALID,0,VALID,21.0486,VALID,355,VALID,0.512891,
2010-03-25, 00:40:04,VALID,916.468,VALID,0,VALID,97.0461,VALID,0,VALID,21.0486,VALID,355,VALID,0.2875,
2010-03-25, 00:41:04,VALID,916.476,VALID,0,VALID,97.0461,VALID,0,VALID,21.047,VALID,355,VALID,0.121484,
2010-03-25, 00:42:04,VALID,916.459,VALID,0,VALID,97.0766,VALID,0,VALID,21.0665,VALID,355,VALID,0.213672,
2010-03-25, 00:43:04,VALID,916.429,VALID,0,VALID,97.0613,VALID,0,VALID,21.1071,VALID,355,VALID,0.260938,
2010-03-25, 00:44:04,VALID,916.391,VALID,0,VALID,97.0766,VALID,0,VALID,21.0876,VALID,355,VALID,0.533203,
2010-03-25, 00:45:04,VALID,916.364,VALID,0,VALID,97.0613,VALID,0,VALID,21.0486,VALID,355,VALID,0.84375,
2010-03-25, 00:46:04,VALID,916.358,VALID,0,VALID,97.069,VALID,0,VALID,21.0275,VALID,355,VALID,0.958984,
2010-03-25, 00:47:04,VALID,916.29,VALID,0,VALID,97.069,VALID,0,VALID,21.008,VALID,355,VALID,1.05703,
2010-03-25, 00:48:04,VALID,916.302,VALID,0,VALID,97.0613,VALID,0,VALID,21.0096,VALID,355,VALID,1.02305,
2010-03-25, 00:49:04,VALID,916.304,VALID,0,VALID,97.0766,VALID,0,VALID,20.9885,VALID,355,VALID,0.958984,
2010-03-25, 00:50:04,VALID,916.303,VALID,0,VALID,97.0766,VALID,0,VALID,20.969,VALID,355,VALID,0.497656,
2010-03-25, 00:51:04,VALID,916.316,VALID,0,VALID,97.0842,VALID,0,VALID,20.9885,VALID,355,VALID,0.316406,
2010-03-25, 00:52:04,VALID,916.299,VALID,0,VALID,97.1071,VALID,0.107441,VALID,21.008,VALID,355,VALID,0.255469,
2010-03-25, 00:53:04,VALID,916.279,VALID,0,VALID,97.1147,VALID,0,VALID,21.0275,INVALID,360,VALID,0,
2010-03-25, 00:54:04,VALID,916.261,VALID,0,VALID,97.1223,VALID,0,VALID,21.0291,VALID,355,VALID,0,
2010-03-25, 00:55:04,VALID,916.266,VALID,0,VALID,97.1452,VALID,0,VALID,21.0291,VALID,355,VALID,0,
2010-03-25, 00:56:04,VALID,916.218,VALID,0,VALID,97.1452,VALID,0,VALID,21.0291,VALID,355,VALID,0,
2010-03-25, 00:57:04,VALID,916.228,VALID,0,VALID,97.1299,VALID,0,VALID,21.0486,VALID,355,VALID,0.577734,
2010-03-25, 00:58:04,VALID,916.208,VALID,0,VALID,97.1376,VALID,0,VALID,21.0096,VALID,355,VALID,0.573438,
2010-03-25, 00:59:04,VALID,916.174,VALID,0,VALID,97.1452,VALID,0,VALID,20.9885,VALID,355,VALID,0.65,
2010-03-25, 01:00:04,VALID,916.185,VALID,0,VALID,97.1528,VALID,0,VALID,20.969,VALID,355,VALID,0.657812,
2010-03-25, 01:01:04,VALID,916.159,VALID,0,VALID,97.1376,VALID,0.107441,VALID,20.969,VALID,355,VALID,0.674219,
2010-03-25, 01:02:04,VALID,916.198,VALID,0,VALID,97.1452,VALID,0.107441,VALID,20.9495,VALID,355,VALID,0.4625,
2010-03-25, 01:03:04,VALID,916.174,VALID,0,VALID,97.1681,VALID,0.107441,VALID,20.9479,VALID,355,VALID,0,
2010-03-25, 01:04:04,VALID,916.196,VALID,0,VALID,97.1681,VALID,0.107441,VALID,20.9885,VALID,355,VALID,0.195703,
2010-03-25, 01:05:04,VALID,916.192,VALID,0,VALID,97.1757,VALID,0.107441,VALID,20.969,VALID,355,VALID,0.392578,
2010-03-25, 01:06:04,VALID,916.182,VALID,0,VALID,97.1604,VALID,0,VALID,20.969,VALID,355,VALID,0.126953,
2010-03-25, 01:07:04,VALID,916.136,VALID,0,VALID,97.1909,VALID,0.107441,VALID,20.9869,VALID,354,VALID,0,
2010-03-25, 01:08:04,VALID,916.097,VALID,0,VALID,97.1833,VALID,0,VALID,21.0275,VALID,355,VALID,0,
2010-03-25, 01:09:04,VALID,916.13,VALID,0,VALID,97.1833,VALID,0,VALID,21.0275,VALID,355,VALID,0,
2010-03-25, 01:10:04,VALID,916.112,VALID,0,VALID,97.1986,VALID,0.107441,VALID,21.047,VALID,355,VALID,0,
2010-03-25, 01:11:04,VALID,916.123,VALID,0,VALID,97.1986,VALID,0.107441,VALID,21.0665,INVALID,360,VALID,0,
2010-03-25, 01:12:04,VALID,916.123,VALID,0,VALID,97.2138,VALID,0.107441,VALID,21.0048,INVALID,360,VALID,0,
2010-03-25, 01:13:04,VALID,916.135,VALID,0,VALID,97.1909,VALID,0.107441,VALID,21.047,INVALID,360,VALID,0,
2010-03-25, 01:14:04,VALID,916.157,VALID,0,VALID,97.1833,VALID,0.107441,VALID,21.0275,INVALID,360,VALID,0,
2010-03-25, 01:15:04,VALID,916.125,VALID,0,VALID,97.229,VALID,0.107441,VALID,20.9674,VALID,355,VALID,0.040625,
2010-03-25, 01:16:04,VALID,916.137,VALID,0,VALID,97.2062,VALID,0,VALID,20.9284,VALID,355,VALID,0.406641,
2010-03-25, 01:17:04,VALID,916.127,VALID,0,VALID,97.2062,VALID,0.107441,VALID,20.93,VALID,355,VALID,0.54375,
2010-03-25, 01:18:04,VALID,916.135,VALID,0,VALID,97.1833,VALID,0.107441,VALID,20.9495,VALID,355,VALID,0.457031,
2010-03-25, 01:19:04,VALID,916.119,VALID,0,VALID,97.2062,VALID,0,VALID,20.93,VALID,355,VALID,0.384766,
2010-03-25, 01:20:04,VALID,916.132,VALID,0,VALID,97.2214,VALID,0,VALID,20.93,VALID,355,VALID,0.386719,
2010-03-25, 01:21:04,VALID,916.074,VALID,0,VALID,97.2062,VALID,0.107441,VALID,20.9089,VALID,355,VALID,0.307031,
2010-03-25, 01:22:04,VALID,916.088,VALID,0,VALID,97.2138,VALID,0.107441,VALID,20.93,VALID,355,VALID,0.447266,
2010-03-25, 01:23:04,VALID,916.083,VALID,0,VALID,97.2138,VALID,0.107441,VALID,20.93,VALID,355,VALID,0.258594,
2010-03-25, 01:24:04,VALID,916.059,VALID,0,VALID,97.2214,VALID,0.107441,VALID,20.93,VALID,354,VALID,0,
2010-03-25, 01:25:04,VALID,916.058,VALID,0,VALID,97.2214,VALID,0.107441,VALID,20.9495,INVALID,360,VALID,0,
2010-03-25, 01:26:04,VALID,916.073,VALID,0,VALID,97.2367,VALID,0.107441,VALID,20.9495,VALID,355,VALID,0.251953,
2010-03-25, 01:27:04,VALID,916.035,VALID,0,VALID,97.2367,VALID,0,VALID,20.969,INVALID,360,VALID,0.000390625,
2010-03-25, 01:28:04,VALID,916.038,VALID,0,VALID,97.2367,VALID,0.107441,VALID,20.9885,VALID,355,VALID,0.117578,
2010-03-25, 01:29:04,VALID,915.97,VALID,0,VALID,97.2595,VALID,0.107441,VALID,21.0064,VALID,355,VALID,0.108984,
2010-03-25, 01:30:04,VALID,915.983,VALID,0,VALID,97.2443,VALID,0,VALID,21.0275,INVALID,360,VALID,0,
2010-03-25, 01:31:04,VALID,915.981,VALID,0,VALID,97.2519,VALID,0.107441,VALID,21.0275,VALID,355,VALID,0.167187,
2010-03-25, 01:32:04,VALID,915.961,VALID,0,VALID,97.2443,VALID,0,VALID,21.0275,VALID,355,VALID,0.191406,
2010-03-25, 01:33:04,VALID,915.969,VALID,0,VALID,97.229,VALID,0.107441,VALID,21.0064,VALID,355,VALID,0.166797,
2010-03-25, 01:34:04,VALID,915.935,VALID,0,VALID,97.2519,VALID,0,VALID,21.008,INVALID,360,VALID,0,
2010-03-25, 01:35:04,VALID,915.934,VALID,0,VALID,97.2443,VALID,0,VALID,21.0291,VALID,355,VALID,0.143359,
2010-03-25, 01:36:04,VALID,915.892,VALID,0,VALID,97.2443,VALID,0.107441,VALID,21.0486,INVALID,360,VALID,0,
2010-03-25, 01:37:04,VALID,915.913,VALID,0,VALID,97.2519,VALID,0,VALID,21.008,VALID,355,VALID,0,
2010-03-25, 01:38:04,VALID,915.854,VALID,0,VALID,97.2367,VALID,0.107441,VALID,21.008,VALID,355,VALID,0.28125,
2010-03-25, 01:39:04,VALID,915.87,VALID,0,VALID,97.2443,VALID,0.107441,VALID,20.9869,VALID,355,VALID,0.342187,
2010-03-25, 01:40:04,VALID,915.842,VALID,0,VALID,97.2595,VALID,0.107441,VALID,21.0275,VALID,355,VALID,0.430078,
2010-03-25, 01:41:04,VALID,915.805,VALID,0,VALID,97.2595,VALID,0.107441,VALID,21.0275,VALID,355,VALID,0.0179687,
2010-03-25, 01:42:04,VALID,915.798,VALID,0,VALID,97.2519,VALID,0.107441,VALID,21.0275,VALID,355,VALID,0,
2010-03-25, 01:43:04,VALID,915.795,VALID,0,VALID,97.2443,VALID,0,VALID,21.008,VALID,355,VALID,0.365625,
2010-03-25, 01:44:04,VALID,915.827,VALID,0,VALID,97.2367,VALID,0.107441,VALID,21.0275,VALID,355,VALID,0.103125,
2010-03-25, 01:45:04,VALID,915.829,VALID,0,VALID,97.2672,VALID,0,VALID,21.0064,VALID,355,VALID,0.353516,
2010-03-25, 01:46:04,VALID,915.808,VALID,0,VALID,97.2595,VALID,0,VALID,21.0096,VALID,355,VALID,0.748828,
2010-03-25, 01:47:04,VALID,915.775,VALID,0,VALID,97.2443,VALID,0,VALID,21.0291,VALID,355,VALID,0.269531,
2010-03-25, 01:48:04,VALID,915.77,VALID,0,VALID,97.2672,VALID,0,VALID,21.0486,VALID,355,VALID,0.380078,
2010-03-25, 01:49:04,VALID,915.726,VALID,0,VALID,97.2519,VALID,0,VALID,20.9901,VALID,355,VALID,0.407422,
2010-03-25, 01:50:04,VALID,915.737,VALID,0,VALID,97.229,VALID,0,VALID,20.9706,VALID,355,VALID,0.604688,
2010-03-25, 01:51:04,VALID,915.716,VALID,0,VALID,97.229,VALID,0,VALID,20.9511,VALID,355,VALID,0.621094,
2010-03-25, 01:52:04,VALID,915.671,VALID,0,VALID,97.2443,VALID,0,VALID,21.0112,VALID,355,VALID,0.425,
2010-03-25, 01:53:04,VALID,915.669,VALID,0,VALID,97.2443,VALID,0,VALID,20.9901,VALID,355,VALID,0.510938,
2010-03-25, 01:54:04,VALID,915.665,VALID,0,VALID,97.2672,VALID,0,VALID,20.9901,VALID,355,VALID,0.902734,
2010-03-25, 01:55:04,VALID,915.586,VALID,0,VALID,97.2672,VALID,0,VALID,20.9706,VALID,355,VALID,0.810547,
2010-03-25, 01:56:04,VALID,915.632,VALID,0,VALID,97.2672,VALID,0,VALID,20.9706,VALID,355,VALID,0.603516,
2010-03-25, 01:57:04,VALID,915.613,VALID,0,VALID,97.2595,VALID,0,VALID,20.9511,VALID,355,VALID,0.590234,
2010-03-25, 01:58:04,VALID,915.602,VALID,0,VALID,97.2672,VALID,0,VALID,20.9495,VALID,355,VALID,0.810156,
2010-03-25, 01:59:04,VALID,915.558,VALID,0,VALID,97.2595,VALID,0,VALID,20.9706,VALID,355,VALID,0.967188,
2010-03-25, 02:00:04,VALID,915.55,VALID,0,VALID,97.2824,VALID,0,VALID,20.9511,VALID,355,VALID,0.966406,
2010-03-25, 02:01:04,VALID,915.549,VALID,0,VALID,97.2824,VALID,0,VALID,20.9706,VALID,355,VALID,0.646094,
2010-03-25, 02:02:04,VALID,915.518,VALID,0,VALID,97.2595,VALID,0,VALID,20.9706,VALID,355,VALID,0.597266,
2010-03-25, 02:03:04,VALID,915.482,VALID,0,VALID,97.29,VALID,0,VALID,20.9901,VALID,355,VALID,0.609375,
2010-03-25, 02:04:04,VALID,915.442,VALID,0,VALID,97.2824,VALID,0,VALID,20.9901,VALID,355,VALID,0.40625,
2010-03-25, 02:05:04,VALID,915.397,VALID,0,VALID,97.2824,VALID,0,VALID,20.9706,VALID,355,VALID,0.528125,
2010-03-25, 02:06:04,VALID,915.362,VALID,0,VALID,97.2672,VALID,0,VALID,20.9511,VALID,355,VALID,0.964844,
2010-03-25, 02:07:04,VALID,915.356,VALID,0,VALID,97.2977,VALID,0,VALID,20.912,VALID,355,VALID,0.579297,
2010-03-25, 02:08:04,VALID,915.379,VALID,0,VALID,97.29,VALID,0,VALID,20.912,VALID,355,VALID,0.599219,
2010-03-25, 02:09:04,VALID,915.374,VALID,0,VALID,97.2824,VALID,0,VALID,20.912,VALID,355,VALID,0.804297,
2010-03-25, 02:10:04,VALID,915.375,VALID,0,VALID,97.2824,VALID,0,VALID,20.9511,VALID,355,VALID,0.564062,
2010-03-25, 02:11:04,VALID,915.398,VALID,0,VALID,97.29,VALID,0,VALID,20.9511,VALID,355,VALID,0.673047,
2010-03-25, 02:12:04,VALID,915.387,VALID,0,VALID,97.3129,VALID,0,VALID,20.9495,VALID,355,VALID,0.485938,
2010-03-25, 02:13:04,VALID,915.398,VALID,0,VALID,97.3205,VALID,0,VALID,20.9901,INVALID,360,VALID,0.01875,
2010-03-25, 02:14:04,VALID,915.379,VALID,0,VALID,97.3129,VALID,0,VALID,21.0096,INVALID,360,VALID,0,
2010-03-25, 02:15:04,VALID,915.38,VALID,0,VALID,97.3205,VALID,0,VALID,21.0291,INVALID,360,VALID,0,
2010-03-25, 02:16:04,VALID,915.381,VALID,0,VALID,97.3205,VALID,0.107441,VALID,21.0275,INVALID,360,VALID,0,
2010-03-25, 02:17:04,VALID,915.419,VALID,0,VALID,97.3358,VALID,0.107441,VALID,21.008,VALID,355,VALID,0.242969,
2010-03-25, 02:18:04,VALID,915.409,VALID,0,VALID,97.3129,VALID,0.107441,VALID,20.969,VALID,355,VALID,0.257031,
2010-03-25, 02:19:04,VALID,915.413,VALID,0,VALID,97.3129,VALID,0,VALID,20.9495,VALID,355,VALID,0.275781,
2010-03-25, 02:20:04,VALID,915.452,VALID,0,VALID,97.3281,VALID,0,VALID,20.969,VALID,355,VALID,0.665234,
2010-03-25, 02:21:04,VALID,915.489,VALID,0,VALID,97.3053,VALID,0.107441,VALID,20.93,VALID,355,VALID,0.890625,
2010-03-25, 02:22:04,VALID,915.5,VALID,0,VALID,97.3053,VALID,0.107441,VALID,20.93,VALID,355,VALID,0.6625,
2010-03-25, 02:23:04,VALID,915.523,VALID,0,VALID,97.3281,VALID,0.107441,VALID,20.93,VALID,355,VALID,0.566406,
2010-03-25, 02:24:04,VALID,915.51,VALID,0,VALID,97.3205,VALID,0.107441,VALID,20.93,VALID,355,VALID,0.387109,
2010-03-25, 02:25:04,VALID,915.493,VALID,0,VALID,97.3205,VALID,0.107441,VALID,20.8894,VALID,355,VALID,0.101953,
2010-03-25, 02:26:04,VALID,915.453,VALID,0,VALID,97.3053,VALID,0.107441,VALID,20.9105,VALID,355,VALID,0.399219,
2010-03-25, 02:27:04,VALID,915.457,VALID,0,VALID,97.3358,VALID,0.107441,VALID,20.9105,VALID,355,VALID,0.234766,
2010-03-25, 02:28:04,VALID,915.423,VALID,0,VALID,97.3205,VALID,0,VALID,20.93,VALID,355,VALID,0.285547,
2010-03-25, 02:29:04,VALID,915.391,VALID,0,VALID,97.3281,VALID,0.107441,VALID,20.93,VALID,355,VALID,0.394531,
2010-03-25, 02:30:04,VALID,915.412,VALID,0,VALID,97.3434,VALID,0.107441,VALID,20.9089,VALID,355,VALID,0.414453,
2010-03-25, 02:31:04,VALID,915.349,VALID,0,VALID,97.3358,VALID,0,VALID,20.8925,VALID,355,VALID,0.567187,
2010-03-25, 02:32:04,VALID,915.366,VALID,0,VALID,97.3281,VALID,0,VALID,20.8925,VALID,355,VALID,0.819531,
2010-03-25, 02:33:04,VALID,915.348,VALID,0,VALID,97.3281,VALID,0,VALID,20.873,VALID,355,VALID,0.867969,
2010-03-25, 02:34:04,VALID,915.349,VALID,0,VALID,97.3358,VALID,0,VALID,20.8925,VALID,355,VALID,0.727344,
2010-03-25, 02:35:04,VALID,915.402,VALID,0,VALID,97.3281,VALID,0,VALID,20.8324,VALID,355,VALID,0.640234,
2010-03-25, 02:36:04,VALID,915.369,VALID,0,VALID,97.3434,VALID,0,VALID,20.7934,VALID,356,VALID,0.948438,
2010-03-25, 02:37:04,VALID,915.333,VALID,0,VALID,97.3129,VALID,0,VALID,20.7755,VALID,356,VALID,1.13281,
2010-03-25, 02:38:04,VALID,915.336,VALID,0,VALID,97.3358,VALID,0,VALID,20.756,VALID,356,VALID,1.15781,
2010-03-25, 02:39:04,VALID,915.318,VALID,0,VALID,97.3358,VALID,0,VALID,20.7365,VALID,356,VALID,1.13437,
2010-03-25, 02:40:04,VALID,915.29,VALID,0,VALID,97.351,VALID,0,VALID,20.717,VALID,356,VALID,0.907422,
2010-03-25, 02:41:04,VALID,915.284,VALID,0,VALID,97.3586,VALID,0,VALID,20.678,VALID,356,VALID,1.07344,
2010-03-25, 02:42:04,VALID,915.245,VALID,0,VALID,97.3434,VALID,0,VALID,20.678,VALID,356,VALID,0.507813,
2010-03-25, 02:43:04,VALID,915.21,VALID,0,VALID,97.3434,VALID,0,VALID,20.678,VALID,356,VALID,0.384766,
2010-03-25, 02:44:04,VALID,915.203,VALID,0,VALID,97.3586,VALID,0,VALID,20.717,VALID,356,VALID,0.458984,
2010-03-25, 02:45:04,VALID,915.168,VALID,0,VALID,97.3663,VALID,0,VALID,20.7154,VALID,356,VALID,0.148828,
2010-03-25, 02:46:04,VALID,915.171,VALID,0,VALID,97.3739,VALID,0,VALID,20.7365,VALID,356,VALID,0.303906,
2010-03-25, 02:47:04,VALID,915.182,VALID,0,VALID,97.3663,VALID,0,VALID,20.756,VALID,356,VALID,0.3625,
2010-03-25, 02:48:04,VALID,915.143,VALID,0,VALID,97.3739,VALID,0,VALID,20.756,VALID,356,VALID,0.639453,
2010-03-25, 02:49:04,VALID,915.158,VALID,0,VALID,97.3815,VALID,0,VALID,20.7365,VALID,356,VALID,0.900391,
2010-03-25, 02:50:04,VALID,915.177,VALID,0,VALID,97.3815,VALID,0,VALID,20.717,VALID,356,VALID,0.516406,
2010-03-25, 02:51:04,VALID,915.209,VALID,0,VALID,97.3815,VALID,0,VALID,20.7154,VALID,356,VALID,0.284375,
2010-03-25, 02:52:04,VALID,915.239,VALID,0,VALID,97.3968,VALID,0,VALID,20.7365,VALID,356,VALID,0.4375,
2010-03-25, 02:53:04,VALID,915.235,VALID,0,VALID,97.3815,VALID,0,VALID,20.717,VALID,356,VALID,0.231641,
2010-03-25, 02:54:04,VALID,915.247,VALID,0,VALID,97.3815,VALID,0,VALID,20.717,INVALID,360,VALID,0,
2010-03-25, 02:55:04,VALID,915.223,VALID,0,VALID,97.3891,VALID,0,VALID,20.756,VALID,356,VALID,0.206641,
2010-03-25, 02:56:04,VALID,915.252,VALID,0,VALID,97.4044,VALID,0,VALID,20.7739,VALID,356,VALID,0.220703,
2010-03-25, 02:57:04,VALID,915.244,VALID,0,VALID,97.3891,VALID,0,VALID,20.8145,VALID,356,VALID,0.606641,
2010-03-25, 02:58:04,VALID,915.236,VALID,0,VALID,97.412,VALID,0,VALID,20.8535,VALID,356,VALID,0.421875,
2010-03-25, 02:59:04,VALID,915.23,VALID,0,VALID,97.3891,VALID,0,VALID,20.8535,VALID,356,VALID,0.263281,
2010-03-25, 03:00:04,VALID,915.2,VALID,0,VALID,97.4044,VALID,0,VALID,20.8535,INVALID,360,VALID,0,
2010-03-25, 03:01:04,VALID,915.2,VALID,0,VALID,97.4044,VALID,0.107441,VALID,20.8714,VALID,356,VALID,0.159375,
2010-03-25, 03:02:04,VALID,915.187,VALID,0,VALID,97.3891,VALID,0,VALID,20.8714,VALID,356,VALID,0.184375,
2010-03-25, 03:03:04,VALID,915.188,VALID,0,VALID,97.4044,VALID,0.107441,VALID,20.8714,INVALID,360,VALID,0,
2010-03-25, 03:04:04,VALID,915.166,VALID,0,VALID,97.3891,VALID,0.107441,VALID,20.891,VALID,356,VALID,0.599609,
2010-03-25, 03:05:04,VALID,915.173,VALID,0,VALID,97.3815,VALID,0.107441,VALID,20.9105,VALID,356,VALID,0.76875,
2010-03-25, 03:06:04,VALID,915.183,VALID,0,VALID,97.4044,VALID,0,VALID,20.9105,VALID,356,VALID,0.742578,
2010-03-25, 03:07:04,VALID,915.215,VALID,0,VALID,97.4196,VALID,0.107441,VALID,20.93,VALID,356,VALID,0.417578,
2010-03-25, 03:08:04,VALID,915.205,VALID,0,VALID,97.3815,VALID,0,VALID,20.93,VALID,356,VALID,0.307813,
2010-03-25, 03:09:04,VALID,915.234,VALID,0,VALID,97.4044,VALID,0.107441,VALID,20.9284,INVALID,360,VALID,0.0894531,
2010-03-25, 03:10:04,VALID,915.239,VALID,0,VALID,97.4196,VALID,0.107441,VALID,20.9495,VALID,356,VALID,0.0046875,
2010-03-25, 03:11:04,VALID,915.252,VALID,0,VALID,97.4044,VALID,0.107441,VALID,20.969,VALID,356,VALID,0.330859,
2010-03-25, 03:12:04,VALID,915.2,VALID,0,VALID,97.4044,VALID,0.107441,VALID,20.9495,VALID,356,VALID,0.332422,
2010-03-25, 03:13:04,VALID,915.24,VALID,0,VALID,97.4196,VALID,0.107441,VALID,20.9495,VALID,356,VALID,0.635547,
2010-03-25, 03:14:04,VALID,915.215,VALID,0,VALID,97.3968,VALID,0,VALID,20.9495,VALID,356,VALID,0.723047,
2010-03-25, 03:15:04,VALID,915.241,VALID,0,VALID,97.3815,VALID,0.107441,VALID,20.9495,VALID,356,VALID,0.941406,
2010-03-25, 03:16:04,VALID,915.243,VALID,0,VALID,97.3891,VALID,0,VALID,20.912,VALID,356,VALID,0.882422,
2010-03-25, 03:17:04,VALID,915.238,VALID,0,VALID,97.3968,VALID,0,VALID,20.873,VALID,356,VALID,0.774609,
2010-03-25, 03:18:04,VALID,915.285,VALID,0,VALID,97.3739,VALID,0,VALID,20.8535,VALID,356,VALID,0.401953,
2010-03-25, 03:19:04,VALID,915.275,VALID,0,VALID,97.3815,VALID,0,VALID,20.8324,VALID,356,VALID,0.513281,
2010-03-25, 03:20:04,VALID,915.265,VALID,0,VALID,97.3815,VALID,0,VALID,20.834,VALID,356,VALID,0.399219,
2010-03-25, 03:21:04,VALID,915.317,VALID,0,VALID,97.412,VALID,0,VALID,20.834,VALID,356,VALID,0.369531,
2010-03-25, 03:22:04,VALID,915.3,VALID,0,VALID,97.412,VALID,0,VALID,20.8535,VALID,356,VALID,0.290625,
2010-03-25, 03:23:05,VALID,915.321,VALID,0,VALID,97.412,VALID,0,VALID,20.8535,VALID,356,VALID,0.789063,
2010-03-25, 03:24:05,VALID,915.319,VALID,0,VALID,97.4196,VALID,0,VALID,20.8714,VALID,356,VALID,1.10547,
2010-03-25, 03:25:05,VALID,915.332,VALID,0,VALID,97.3968,VALID,0,VALID,20.8714,VALID,356,VALID,1.15156,
2010-03-25, 03:26:05,VALID,915.359,VALID,0,VALID,97.3968,VALID,0,VALID,20.873,VALID,356,VALID,0.867188,
2010-03-25, 03:27:05,VALID,915.367,VALID,0,VALID,97.4196,VALID,0,VALID,20.8324,VALID,356,VALID,0.745313,
2010-03-25, 03:28:05,VALID,915.369,VALID,0,VALID,97.4349,VALID,0,VALID,20.8925,VALID,356,VALID,0.675391,
2010-03-25, 03:29:05,VALID,915.352,VALID,0,VALID,97.412,VALID,0,VALID,20.8925,VALID,356,VALID,0.921484,
2010-03-25, 03:30:05,VALID,915.332,VALID,0,VALID,97.4196,VALID,0,VALID,20.8925,VALID,356,VALID,1.23633,
2010-03-25, 03:31:05,VALID,915.392,VALID,0,VALID,97.412,VALID,0,VALID,20.8519,VALID,356,VALID,1.30156,
2010-03-25, 03:32:05,VALID,915.409,VALID,0,VALID,97.412,VALID,0.107441,VALID,20.8113,VALID,356,VALID,1.39102,
2010-03-25, 03:33:05,VALID,915.399,VALID,0,VALID,97.4044,VALID,0.107441,VALID,20.8113,VALID,356,VALID,1.11406,
2010-03-25, 03:34:05,VALID,915.437,VALID,0,VALID,97.4196,VALID,0.107441,VALID,20.7918,VALID,356,VALID,0.932422,
2010-03-25, 03:35:05,VALID,915.458,VALID,0,VALID,97.4349,VALID,0.107441,VALID,20.8113,VALID,356,VALID,0.565234,
2010-03-25, 03:36:05,VALID,915.459,VALID,0,VALID,97.4273,VALID,0,VALID,20.8324,VALID,356,VALID,0.633594,
2010-03-25, 03:37:05,VALID,915.468,VALID,0,VALID,97.4349,VALID,0.107441,VALID,20.8113,VALID,356,VALID,0.987109,
2010-03-25, 03:38:05,VALID,915.523,VALID,0,VALID,97.4349,VALID,0.107441,VALID,20.8324,VALID,356,VALID,0.683594,
2010-03-25, 03:39:05,VALID,915.48,VALID,0,VALID,97.4425,VALID,0,VALID,20.8129,VALID,356,VALID,0.323438,
2010-03-25, 03:40:05,VALID,915.493,VALID,0,VALID,97.412,VALID,0.107441,VALID,20.8324,VALID,356,VALID,0.297266,
2010-03-25, 03:41:05,VALID,915.476,VALID,0,VALID,97.412,VALID,0,VALID,20.8324,VALID,356,VALID,0.230078,
2010-03-25, 03:42:05,VALID,915.516,VALID,0,VALID,97.4273,VALID,0,VALID,20.8519,VALID,356,VALID,0.540234,